www.pogodaiklimat.ru

Погода и климат >> Архив погоды >> Россия >> Тамбовская область >> Жердевка


ПОГОДА в Жердевке

  • Прогноз погоды в Жердевке
  • Монитор погоды в Жердевке

АРХИВ ПОГОДЫ в Жердевке

Время (UTC), дата Ветер
(напр.,м/с)
 
Видим.   Явления Облачность Т
(С)
Тd
(С)
f
(%)
Тe
(С)
Тes
(С)
Комфортность P
(гПа)
Po
(гПа)
Тmin
(С)
Tmax
(С)
R
(мм)
R24
(мм)
S
(см)
18 17.06 З 1 20 км 5/0
[Ac trans]
+20.7 +11.1 54 +24 +24 комфорт 1014.1 997.0
21 17.06 З 1 20 км 5/0
[Ac cast]
+17.3 +11.0 66 +18 +18 1014.4 997.1
00 18.06 СЗ 2 20 км ясно +15.5 +10.4 72 +15 +15 1014.4 997.0
03 18.06 СЗ 1 10 км 1/0
[Ci fib]
+16.9 +12.4 75 +18 +20 1015.2 997.9 +14.8
06 18.06 З 2 20 км 1/0
[Ci fib]
+24.6 +12.0 45 +26 +36 жарко 1014.2 997.4
09 18.06 СЗ 2 50 км 6/6 1000 м
[Cu med, cong]
+26.8 +10.2 35 +27 +34 жарко 1013.8 997.1
12 18.06 СЗ 3 50 км 5/5 1000 м
[Cu med, cong]
+28.1 +11.0 34 +29 +34 жарко 1012.7 996.0
15 18.06 З 3 50 км 5/5 600 м
[Cu med, cong]
+27.5 +13.1 41 +29 +30 жарко 1011.5 994.8 +28.9
18 18.06 СВ 4 20 км 8/8 630 м
[Cb cap]
+22.6 +13.4 56 +26 +26 жарко 1012.5 995.5
21 18.06 З 2 10 км {гроза, ливн. осадки} 8/8 660 м
[Cb cap]
+18.4 +16.9 91 +20 +20 1012.9 995.7
00 19.06 С 2 10 км {гроза, ливн. осадки} 5/5 600 м
[Cb cap]
+18.3 +16.9 92 +19 +19 1012.6 995.4
03 19.06 С 2 4000 м дымка 3/3 600 м
[Cb cap]
+17.7 +16.4 92 +18 +19 1013.4 996.1 +16.6 8
06 19.06 С 2 10 км ясно +23.8 +16.9 65 +27 +38 жарко 1013.5 996.5
09 19.06 С 4 20 км 4/4 600 м
[Cu med, cong]
+26.4 +11.8 40 +28 +35 жарко 1013.6 996.8
12 19.06 С 4
{10}
50 км 4/4 600 м
[Cu med, cong]
+28.4 +7.1 26 +28 +33 жарко 1013.5 996.8
15 19.06 С 3 50 км 3/3 1000 м
[Cu med, cong]
+28.0 +8.5 29 +28 +29 жарко 1013.2 996.5 +28.9
18 19.06 СЗ 2 20 км ясно +22.2 +10.6 48 +24 +24 комфорт 1014.3 997.2
21 19.06 СЗ 2 20 км ясно +18.1 +11.8 67 +19 +19 1015.0 997.7
00 20.06 СЗ 2 20 км ясно +16.2 +11.5 74 +16 +16 1016.1 998.7
03 20.06 СЗ 1 10 км ясно +17.8 +13.0 73 +19 +21 1016.7 999.4 +15.6
06 20.06 СВ 1 20 км ясно +25.3 +12.1 44 +27 +39 жарко 1016.8 999.9
09 20.06 С 3 20 км 5/5 1000 м
[Cu med, cong]
+28.5 +8.2 28 +28 +35 жарко 1016.1 999.4
12 20.06 СВ 2 50 км 5/5 1000 м
[Cu med, cong]
+29.3 +7.8 26 +29 +35 жарко 1015.7 999.1
15 20.06 СВ 2 50 км 3/3 1000 м
[Cu hum]
+28.5 +9.8 31 +29 +30 жарко 1015.3 998.6 +30.6
18 20.06 СЗ 1 20 км ясно +24.9 +9.7 38 +26 +26 жарко 1016.1 999.3
21 20.06 СЗ 1 20 км ясно +18.8 +12.5 67 +21 +21 комфорт 1017.0 999.7
00 21.06 СЗ 2 20 км ясно +16.2 +11.0 71 +16 +16 1018.2 1000.7
03 21.06 С 1 20 км ясно +17.6 +11.8 69 +19 +21 1018.9 1001.5 +15.3
06 21.06 В 1 20 км ясно +28.2 +12.1 37 +29 +42 жарко 1019.0 1001.6
09 21.06 В 2 50 км 3/3
[Cu hum]
+30.7 +6.5 22 +29 +41 жарко 1018.3 1001.6
12 21.06 ЮВ 1 50 км 4/4 1000 м
[Cu hum]
+31.9 +5.6 19 +30 +38 жарко 1017.8 1001.2
15 21.06 З 1 50 км 3/3 1000 м
[Cu hum]
+32.2 +6.5 20 +30 +33 жарко 1017.0 1000.4 +32.7
18 21.06 штиль 0 20 км 3/0
[Ac trans]
+25.4 +8.9 35 +26 +26 жарко 1017.0 1000.3
21 21.06 штиль 0 20 км ясно +19.4 +11.9 62 +20 +20 1018.1 1000.8
00 22.06 штиль 0 20 км 4/0
[Ac trans]
+17.1 +11.0 67 +17 +17 1018.8 1001.4
03 22.06 З 1 20 км 8/0
[Ac trans]
+18.4 +14.6 79 +20 +21 1019.2 1001.8 +16.1
06 22.06 Ю 2 10 км 3/0
[Ci sp]
+28.6 +10.7 33 +29 +39 жарко 1018.4 1001.7
09 22.06 СЗ 1 20 км 4/4 1000 м
[Cu med, cong]
+32.3 +6.8 20 +30 +43 жарко 1018.2 1001.6
12 22.06 СЗ 3 50 км 4/4 1000 м
[Cu med, cong]
+32.3 +7.7 22 +31 +37 жарко 1017.8 1001.2
15 22.06 З 1 50 км 3/3 1000 м
[Cu med, cong]
+32.9 +10.2 25 +32 +35 жарко 1017.0 1000.5 +33.8
18 22.06 СЗ 1 20 км ясно +27.0 +10.3 35 +28 +28 жарко 1017.0 1000.2
21 22.06 ЮЗ 1 20 км 3/0
[Ci sp]
+21.3 +13.9 63 +24 +24 комфорт 1017.7 1000.5
00 23.06 штиль 0 20 км 8/8 600 м
[Sc]
+19.7 +15.0 74 +21 +21 комфорт 1018.2 1000.9
03 23.06 штиль 0 10 км 5/0
[Ac trans]
+20.4 +15.9 75 +23 +25 комфорт 1018.4 1001.2 +18.5
06 23.06 ЮВ 1 20 км 4/0
[Ac trans]
+29.6 +12.2 34 +30 +40 жарко 1018.3 1001.6
09 23.06 Ю 2 50 км 6/3 1000 м
[Cu med, cong Ac trans]
+33.5 +5.3 17 +31 +40 жарко 1017.8 1001.3
12 23.06 З 2 50 км 8/3 1000 м
[Cu med, cong Ci fib]
+34.4 +6.2 17 +32 +39 жарко 1016.8 1000.3
15 23.06 СВ 1 50 км 5/3 1000 м
[Cu med, cong Cc]
+33.8 +5.3 17 +31 +34 жарко 1015.7 999.3 +35.1
18 23.06 С 1 20 км 8/0
[Ac trans Ci fib]
+28.0 +9.3 31 +28 +28 жарко 1016.5 999.7
21 23.06 В 1 20 км 4/0
[Ac trans]
+24.6 +10.2 40 +26 +26 жарко 1016.5 999.6
00 24.06 штиль 0 20 км 4/0
[Ac trans Cc]
+21.2 +11.1 52 +23 +23 комфорт 1016.3 999.2
03 24.06 СЗ 1 10 км 8/0
[Ac lent]
+20.8 +13.7 64 +25 +25 комфорт 1016.6 999.5 +19.6
06 24.06 С 2 10 км 6/0
[Ac trans Ci fib]
+29.0 +12.7 37 +30 +38 жарко 1016.8 1000.1
09 24.06 С 4 20 км 6/4 1000 м
[Cu med, cong Ci fib]
+30.6 +13.4 35 +32 +38 жарко 1016.6 1000.0
12 24.06 С 3 20 км 5/0
[Ac trans]
+32.1 +12.4 30 +33 +40 жарко 1016.1 999.6
15 24.06 СЗ 4 20 км 8/0
[Ac trans Ci fib]
+28.7 +15.8 46 +32 +33 душно 1015.9 999.3 +32.8

 

Местоположение метеостанции Жердевка (Тамбовская область, Россия): широта 51.83 долгота 41.48 высота над уровнем моря 147 м.

В архиве по умолчанию представлена погода в Жердевке за последнюю неделю. Архивные данные за месяц целиком и за предыдущие месяцы, начиная с января 2011 года, Вы можете получить, выбрав интересующий диапазон дат из раскрывающегося списка и нажав кнопку "Ввод!".


*Определитесь, кто Вы:
робот инопланетянин человек

Внимание! Время в таблицах - всемирное. Для получения местного времени необходимо прибавить поправку, которая равна 3 ч.

Смотрите также архив погоды в соседних городах и на ближайших метеорологических станциях:

Погода в Обловке (Тамбовская область, Россия) (56 км)
Погода в Совхозе им. Ленина (Тамбовская область, Россия) (59 км)
Погода в Борисоглебске (Воронежская область, Россия) (66 км)
Погода в Анне (Воронежская область, Россия) (83 км)
Погода в Каменной Степи (Воронежская область, Россия) (102 км)
Погода в Тамбове (Тамбовская область, Россия) (108 км)
Погода в Балашове (Саратовская область, Россия) (119 км)
Погода в Урюпинске (Волгоградская область, Россия) (120 км)
Погода в Кирсанове (Тамбовская область, Россия) (126 км)
Погода в Мичуринске (Тамбовская область, Россия) (135 км)

Пояснения к столбцам:

Ветер - указаны скорость ветра в м/с - средняя за 10 мин, порывы в срок и между сроками (в фигурных скобках) и направление, откуда дует ветер: С - северный, СВ - северо-восточный, В - восточный, ЮВ - юго-восточный, Ю - южный, ЮЗ - юго-западный, З - западный, СЗ - северо-западный.
Видимость - горизонтальная дальность видимости в метрах или километрах. При видимости от 1 до 10 км при отсутствии осадков обычно наблюдается дымка, при ухудшении видимости до 1 км и менее - туман. В сухую погоду видимость может ухудшаться дымом, пылью или мглою.
Явления - указаны атмосферные явления, наблюдавшиеся в срок или в последний час перед сроком; фигурными скобками обозначены явления, наблюдавшиеся между сроками (за 1-3 часа до срока); квадратными скобками обозначены град или гололедные отложения с указанием их диаметра в мм.
Облачность - указаны через наклонную черту общая и нижняя облачность в баллах и высота нижней границы облаков в метрах; квадратными скобками обозначены формы облаков: Ci - перистые, Cs - перисто-слоистые, Cc - перисто-кучевые, Ac - высококучевые, As - высокослоистые, Sc - слоисто-кучевые, Ns - слоисто-дождевые, Cu - кучевые, Cb - кучево-дождевые. Подробнее классификацию облаков см. в Атласе облаков (PDF).
T - Температура воздуха - температура, измеренная на высоте 2 м над землей.
Td - Температура точки росы - температура, при понижении до которой содержащийся в воздухе водяной пар достигнет насыщения.
f - Относительная влажность воздуха - влажноcть воздуха, измеренная на высоте 2 м над землей.
Te - Эффективная температура - температура, которую ощущает одетый по сезону человек в тени. Характеристика душности погоды. При расчете учитывается влияние влажности воздуха и скорости ветра на теплоощущения человека.
Tes - Эффективная температура на солнце - температура, которую ощущает человек, с поправкой на солнечный нагрев. Характеристика знойности погоды. Зависит от высоты солнца над горизонтом, облачности и скорости ветра. Ночью, в пасмурную погоду, а также при ветре 12 м/с и более поправка равна нулю.
P - Атмосферное давление - приведенное к уровню моря атмосферное давление.
Po - Атмосферное давление - измеренное на уровне метеостанции атмосферное давление.
Tmin - Минимальная температура - минимум температуры воздуха на высоте 2 м над землей.
Tmax - Максимальная температура - максимум температуры воздуха на высоте 2 м над землей.
R - Количество осадков - Количество выпавших осадков за период времени, мм. При наведении курсора мыши на число - период времени, за который выпало указанное количество осадков.
R24 - Количество осадков - Количество выпавших осадков за 24 часа, мм.
S - Снежный покров - Высота снежного покрова, см. При наведении курсора мыши на число - состояние снежного покрова и степень покрытия местности в баллах.